STARLINK-4026 (52600 NORAD) Tracking and Keplerian Element Data

This shows tracking and keplerian element data for the satellite.

Feedback or suggestion? Click here.




ElementValue
Catalog52600
NameSTARLINK-4026
Epoch Orbit130
Epoch Day167.08334491
Epoch Year2022
RAAN280.9146
Inclination53.2173
Eccentricity0.0001297
Argument of Perigee51.3511
Mean Anonmoly256.2556
Mean Motion15.54105317
Decay Rate-0.00707664
L11 52600U 22052C 22167.08334491 -.00707664 00000+0 -11700-1 0 9995
L22 52600 53.2173 280.9146 0001297 51.3511 256.2556 15.54105317 1308

Live tracking and technical data element details for STARLINK-4026 (NORAD 52600). STARLINK-4026 can be tracked NOW for your location showing map with azimuth and elevation plus other details from your city location.

Track the satellite on the map from your city or location and see movement details for azimuth, elevation, latitude, longitude, range, height, and movement on the map or in text.







IsCatalogInMostPopularTable: catalog: 52600, numindb: 1
Update: records affected: 1



GetName: 52600 STARLINK-4026

Hit Count: updated at: Mon, 27 Jun 2022 05:43:55 GMT